Погода в Прямицыно

Россия / Курская область     51°39′11″N   35°56′56″E
темп.,
°C
ветер,
м/с
пор.,
м/с
влажн.,
%
обл.,
%
осадки,
мм/ч
давл.,
гПа
погр.,
м
3 августа, вт
вт300:00+19зюз4108948 0.9 1009246
03:00+18зсз3109189 1.2 1009267
06:00+17з279338 0.0 1010222
09:00+20з457572 0.0 1012661
12:00+24зсз4553100 0.0 10121355
15:00+25сз5549100 0.0 10121710
18:00+24сз454614 0.0 10121889
21:00+21ссз2460100 0.0 1014245
4 августа, ср
ср400:00+20ссз2363100 0.0 1015152
03:00+19сз2362100 0.0 1015124
06:00+18сз2364100 0.0 1016142
09:00+21сз33530 0.0 1017609
12:00+24зсз453899 0.0 10171929
15:00+25сз453448 0.0 10172507
18:00+24с44395 0.0 10171398
21:00+19св245595 0.0 1018115
5 августа, чт
чт500:00+17в225825 0.0 101847
03:00+16вюв226149 0.0 101846
06:00+16юв256097 0.0 1018117
09:00+22юв464553 0.0 1018518
12:00+27ю4633100 0.0 10161930
15:00+28ююз4630100 0.0 10152616
18:00+27ю3537100 0.0 10141192
21:00+24юв41042100 0.0 1013365
6 августа, пт
пт600:00+22ююв5134499 0.0 1013475
03:00+21ююв51447100 0.0 1011443
06:00+20ююв5154810 0.0 1011436
09:00+25ююв61141100 0.0 1010524
12:00+30ю6831100 0.0 10101577
15:00+32ю582497 0.0 10082653
18:00+31ююв482994 0.0 10061213
21:00+25юв374785 0.2 1007152
7 августа, сб
сб700:00+20ссз3779100 0.3 1008149
03:00+19ссв2283100 0.8 100849
06:00+20св2374100 0.3 100784
09:00+23вюв3662100 0.4 1007263
12:00+27ююв4751100 0.0 1008960
15:00+24ююв3560100 0.1 1008410
18:00+27ю2452100 0.0 1008922
21:00+22з2274100 0.6 100916